Date String (YYYY-MM-DD hh:mm:ss) UTC,Instrument flags,absolute air pressure of the measurement (hPa),sample flow rate (lpm),inlet stack bypass flow (lpm),air temperature of the measurement (°C),ambient temperature measured by the external sensor (°C),aerosol sample conditioner tube jacket temperature (°C),OPC LED temperature (°C),internal box temperature (°C),relative humidity of the measurement (%),span deviation,mass concentration of particles derived from Lorenz-Mie calculation of OPC scattering (μg/m³),mass concentration of particles derived from Lorenz-Mie calculation of OPC scattering (μg/m³),mass concentration of particles derived from Lorenz-Mie calculation of OPC scattering (μg/m³)
DateTimeUTC,F1_M11,P_M11,Q1_M11,Q2_M11,T1_M11,T2_M11,T3_M11,T4_M11,T5_M11,U1_M11,ZSPAN_M11,X2_M11,X0_M11,X1_M11
2024-03-14 17:00:00,SystemResetWarning,0832.0,4.99,000.00,018.6,018.9,000.0,027.2,021.0,25.2,0000.0,0005.29,0009.49,0004.80
2024-03-14 17:01:00,SystemResetWarning,0832.0,4.98,000.00,018.8,018.9,000.0,027.2,021.0,25.0,0000.0,0005.32,0009.09,0004.82
2024-03-14 17:02:00,SystemResetWarning,0832.0,5.00,000.00,018.7,018.6,000.0,027.1,020.7,25.0,0000.0,0005.33,0008.90,0004.85
2024-03-14 17:03:00,SystemResetWarning,0831.9,5.00,000.00,018.7,018.4,000.0,027.1,020.5,25.2,0000.0,0005.32,0008.93,0004.86
2024-03-14 17:04:00,SystemResetWarning,0831.9,5.00,000.00,018.7,018.1,000.0,027.1,020.4,25.2,0000.0,0005.39,0009.49,0004.90
2024-03-14 17:05:00,SystemResetWarning,0831.9,5.00,000.00,018.6,017.9,000.0,027.1,020.2,25.4,0000.0,0005.42,0010.00,0004.93
2024-03-14 17:06:00,SystemResetWarning,0831.9,5.01,000.00,018.5,017.7,000.0,027.1,020.2,25.5,0000.0,0005.49,0010.38,0004.97
2024-03-14 17:07:00,SystemResetWarning,0832.0,5.01,000.00,018.5,017.6,000.0,027.1,020.1,25.6,0000.0,0005.56,0010.66,0004.99
2024-03-14 17:08:00,SystemResetWarning,0832.0,4.99,000.00,018.4,017.4,000.0,027.0,020.0,25.7,0000.0,0005.59,0010.88,0005.01
2024-03-14 17:09:00,SystemResetWarning,0832.0,5.00,000.00,018.4,017.3,000.0,027.1,020.0,25.8,0000.0,0005.61,0011.46,0005.03
2024-03-14 17:10:00,SystemResetWarning,0832.0,5.01,000.00,018.4,017.2,000.0,027.1,020.0,25.9,0000.0,0005.66,0012.19,0005.06
2024-03-14 17:11:00,SystemResetWarning,0832.0,5.01,000.00,018.3,017.2,000.0,027.1,020.0,25.9,0000.0,0005.74,0012.50,0005.08
2024-03-14 17:12:00,SystemResetWarning,0832.0,4.99,000.00,018.3,017.1,000.0,027.1,020.0,26.0,0000.0,0005.77,0013.44,0005.09
2024-03-14 17:13:00,SystemResetWarning,0832.0,4.99,000.00,018.3,017.1,000.0,027.1,020.0,26.3,0000.0,0005.82,0015.38,0005.11
2024-03-14 17:14:00,SystemResetWarning,0832.0,5.00,000.00,018.3,017.0,000.0,027.1,020.0,27.0,0000.0,0005.93,0016.68,0005.15
2024-03-14 17:15:00,SystemResetWarning,0832.0,5.01,000.00,018.3,017.0,000.0,027.1,020.0,26.5,0000.0,0005.95,0016.70,0005.16
2024-03-14 17:16:00,SystemResetWarning,0832.0,5.00,000.00,018.2,017.0,000.0,027.1,020.0,26.5,0000.0,0005.94,0016.31,0005.17
2024-03-14 17:17:00,SystemResetWarning,0832.0,5.01,000.00,018.2,017.0,000.0,027.1,020.0,26.4,0000.0,0005.94,0016.04,0005.18
2024-03-14 17:18:00,SystemResetWarning,0832.0,4.99,000.00,018.2,017.0,000.0,027.1,020.0,26.4,0000.0,0005.96,0015.98,0005.18
2024-03-14 17:19:00,SystemResetWarning,0832.0,4.99,000.00,018.2,017.0,000.0,027.0,020.0,26.5,0000.0,0005.97,0015.72,0005.20
2024-03-14 17:20:00,SystemResetWarning,0832.0,5.00,000.00,018.2,017.0,000.0,027.0,020.0,26.4,0000.0,0005.98,0014.87,0005.20
2024-03-14 17:21:00,SystemResetWarning,0832.0,5.00,000.00,018.2,017.0,000.0,027.0,020.0,26.5,0000.0,0005.97,0014.02,0005.21
2024-03-14 17:22:00,SystemResetWarning,0832.1,5.00,000.00,018.2,017.0,000.0,027.0,020.0,26.4,0000.0,0005.89,0013.58,0005.21
2024-03-14 17:23:00,SystemResetWarning,0832.0,5.00,000.00,018.2,017.0,000.0,027.0,020.0,26.4,0000.0,0005.87,0012.79,0005.22
2024-03-14 17:24:00,SystemResetWarning,0832.0,5.01,000.00,018.2,017.3,000.0,027.1,020.2,26.3,0000.3,0005.89,0011.54,0005.23
2024-03-14 17:25:00,SystemResetWarning,0832.1,5.00,000.00,018.4,018.4,000.0,027.1,020.7,26.0,-000.1,0005.84,0011.13,0005.23
2024-03-14 17:26:00,SystemResetWarning,0832.1,4.99,000.00,018.7,019.1,000.0,027.2,021.1,25.5,-000.4,0005.82,0011.26,0005.21
2024-03-14 17:27:00,SystemResetWarning,0832.1,4.99,000.00,018.8,018.9,000.0,027.1,020.9,25.3,-000.6,0005.83,0011.37,0005.22
2024-03-14 17:28:00,SystemResetWarning,0832.0,5.00,000.00,018.7,018.6,000.0,027.1,020.7,25.4,0000.2,0005.86,0011.94,0005.22
2024-03-14 17:29:00,SystemResetWarning,0832.0,5.01,000.00,018.7,018.4,000.0,027.1,020.5,25.4,0000.7,0005.85,0012.01,0005.23
2024-03-14 17:30:00,SystemResetWarning,0832.0,5.00,000.00,018.6,018.2,000.0,027.1,020.4,25.5,0000.5,0005.89,0012.16,0005.23
2024-03-14 17:31:00,SystemResetWarning,0832.0,5.00,000.00,018.6,018.0,000.0,027.1,020.3,25.6,-000.3,0005.90,0013.51,0005.25
2024-03-14 17:32:00,SystemResetWarning,0832.1,5.00,000.00,018.5,017.8,000.0,027.1,020.2,25.7,-000.0,0005.89,0014.19,0005.24
2024-03-14 17:33:00,SystemResetWarning,0832.0,5.00,000.00,018.5,017.7,000.0,027.1,020.1,25.8,0000.0,0005.91,0014.24,0005.26
2024-03-14 17:34:00,SystemResetWarning,0832.1,4.99,000.00,018.4,017.6,000.0,027.0,020.1,25.8,0000.0,0005.91,0014.23,0005.26
2024-03-14 17:35:00,SystemResetWarning,0832.1,5.01,000.00,018.4,017.5,000.0,027.0,020.0,25.8,0000.0,0005.86,0013.79,0005.24
2024-03-14 17:36:00,SystemResetWarning,0832.1,5.01,000.00,018.4,017.4,000.0,027.0,020.0,25.9,0000.0,0005.83,0012.67,0005.25
2024-03-14 17:37:00,SystemResetWarning,0832.1,5.00,000.00,018.3,017.4,000.0,027.0,020.0,25.9,0000.0,0005.87,0012.35,0005.27
2024-03-14 17:38:00,SystemResetWarning,0832.1,4.99,000.00,018.3,017.3,000.0,027.0,020.0,25.9,0000.0,0005.86,0012.07,0005.28
2024-03-14 17:39:00,SystemResetWarning,0832.1,4.99,000.00,018.3,017.3,000.0,027.0,020.0,26.0,0000.0,0005.82,0011.51,0005.28
2024-03-14 17:40:00,SystemResetWarning,0832.1,5.01,000.00,018.3,017.3,000.0,027.0,020.0,26.0,0000.0,0005.81,0011.29,0005.28
2024-03-14 17:41:00,SystemResetWarning,0832.1,5.01,000.00,018.3,017.2,000.0,027.0,020.0,26.0,0000.0,0005.77,0011.19,0005.28
2024-03-14 17:42:00,SystemResetWarning,0832.1,5.01,000.00,018.3,017.2,000.0,027.0,020.0,25.9,0000.0,0005.74,0010.28,0005.26
2024-03-14 17:43:00,SystemResetWarning,0832.1,4.99,000.00,018.3,017.2,000.0,027.0,020.0,25.9,0000.0,0005.74,0009.80,0005.27
2024-03-14 17:44:00,SystemResetWarning,0832.1,4.99,000.00,018.3,017.2,000.0,027.0,020.0,25.9,0000.0,0005.73,0009.80,0005.25
2024-03-14 17:45:00,SystemResetWarning,0832.1,5.00,000.00,018.2,017.2,000.0,027.0,020.0,25.9,0000.0,0005.69,0009.75,0005.23
2024-03-14 17:46:00,SystemResetWarning,0832.2,5.01,000.00,018.2,017.1,000.0,027.0,020.0,25.9,0000.0,0005.69,0010.06,0005.23
2024-03-14 17:47:00,SystemResetWarning,0832.2,5.00,000.00,018.2,017.1,000.0,027.0,020.0,26.0,0000.0,0005.66,0010.00,0005.20
2024-03-14 17:48:00,SystemResetWarning,0832.2,5.00,000.00,018.2,017.1,000.0,027.0,020.0,26.1,0000.0,0005.60,0009.74,0005.18
2024-03-14 17:49:00,SystemResetWarning,0832.2,5.00,000.00,018.2,017.1,000.0,027.0,020.0,26.2,0000.0,0005.60,0009.80,0005.16
2024-03-14 17:50:00,SystemResetWarning,0832.2,4.99,000.00,018.2,017.1,000.0,027.0,020.0,26.3,0000.0,0005.59,0009.72,0005.14
2024-03-14 17:51:00,SystemResetWarning,0832.2,5.01,000.00,018.2,017.1,000.0,027.0,020.0,26.3,0000.0,0005.62,0009.82,0005.14
2024-03-14 17:52:00,SystemResetWarning,0832.2,5.01,000.00,018.2,017.0,000.0,027.0,020.0,26.3,0000.0,0005.62,0009.89,0005.13
2024-03-14 17:53:00,SystemResetWarning,0832.2,4.99,000.00,018.2,017.0,000.0,027.0,020.0,26.3,0000.0,0005.61,0009.68,0005.12
2024-03-14 17:54:00,SystemResetWarning,0832.2,4.99,000.00,018.2,017.0,000.0,027.0,020.0,26.4,0000.0,0005.61,0009.50,0005.11
2024-03-14 17:55:00,SystemResetWarning,0832.2,5.01,000.00,018.2,017.0,000.0,027.0,020.0,26.4,0000.0,0005.60,0009.47,0005.11
2024-03-14 17:56:00,SystemResetWarning,0832.2,5.01,000.00,018.2,017.0,000.0,027.0,020.0,26.4,0000.0,0005.61,0009.61,0005.11
2024-03-14 17:57:00,SystemResetWarning,0832.2,5.01,000.00,018.2,017.0,000.0,027.0,020.0,26.5,0000.0,0005.63,0010.24,0005.11
2024-03-14 17:58:00,SystemResetWarning,0832.2,5.00,000.00,018.2,017.0,000.0,027.0,020.0,26.5,0000.0,0005.61,0010.45,0005.10
2024-03-14 17:59:00,SystemResetWarning,0832.3,4.99,000.00,018.2,017.0,000.0,027.0,020.0,26.6,0000.0,0005.61,0010.81,0005.10
